Hourly Data Report for August 06, 2020

SVARTEVAEG
NUNAVUT
Current Station Operator: ECCC - MSC

81°09'39.000" N
91°48'59.060" W
72.00 m
2403833
71872
NSG

Download Data

Hourly Data (August 2020)
Hourly Data Report for August 6, 2020
TIME Temp Definition
°C
Dew Point Definition
°C
Rel Hum Definition
%
Wind Dir Definition
10's deg

Wind Spd Definition
km/h
Visibility Definition
km
Stn Press Definition
kPa
Hmdx Definition


Wind Chill Definition


Weather Definition


00:00 -1.6 -2.4 94 32 30   100.06   -9 LegendNANA
01:00 -1.6 -2.2 96 33 30   100.05   -9 LegendNANA
02:00 -1.5 -1.7 98 32 34   100.02   -9 LegendNANA
03:00 -1.1 -1.6 97 33 32   99.98   -8 LegendNANA
04:00 -1.0 -1.5 96 33 31   99.97   -8 LegendNANA
05:00 -0.5 -1.2 95 33 33   99.94   -7 LegendNANA
06:00 -0.1 -1.3 92 33 33   99.91   -7 LegendNANA
07:00 -0.3 -1.2 94 33 31   99.88   -7 LegendNANA
08:00 -0.1 -1.1 93 33 42   99.80   -8 LegendNANA
09:00 0.0 -1.7 88 34 40   99.81   -7 LegendNANA
10:00 -0.2 -2.1 87 33 31   99.83   -7 LegendNANA
11:00 0.0 -2.0 86 33 32   99.82   -7 LegendNANA
12:00 0.0 -2.0 87 33 32   99.78   -7 LegendNANA
13:00 0.8 -1.9 82 34 29   99.76     LegendNANA
14:00 0.3 -1.9 85 33 31   99.79     LegendNANA
15:00 0.7 -2.3 81 30 29   99.77     LegendNANA
16:00 0.3 -1.9 85 34 31   99.76     LegendNANA
17:00 -0.2 -2.1 87 34 32   99.76   -7 LegendNANA
18:00 -0.1 -2.1 86 34 30   99.75   -7 LegendNANA
19:00 -0.1 -2.0 87 34 30   99.75   -7 LegendNANA
20:00 -0.5 -2.2 88 34 30   99.76   -7 LegendNANA
21:00 -0.6 -2.5 87 34 29   99.75   -7 LegendNANA
22:00 -1.3 -2.3 93 34 27   99.74   -8 LegendNANA
23:00 -0.5 -2.3 88 34 23   99.76   -6 LegendNANA

Notes on Data Quality.

Legend

  • E = Estimated
  • M = Missing
  • NA = Not Available*
  • [empty] = Indicates an unobserved value
Date modified: